[[{"header":{"parameterUnit":"m.s-1","parameterCategory":1,"la1":30.2991,"la2":30.254,"lo1":-89.0895,"lo2":-89.0444,"dy":0.0017,"dx":0.0017,"nx":28,"ny":28,"refTime":"2025-04-11T03:00:00:Z","depth":0,"parameterNumber":2,"parameterNumberName":"U-component_of_WINDS"},"data":[0,0,0,0,0,0,0,0,0,0,0,0,0,0,0,0,0,0,0,0,0,0,0,0,0,0,0,0,0,0,0,0,0,0,0,0,0,0,0,0,0,0,0,0,0,0,0,0,0,0,0,0,0,0,0,0,0,0,0.0442,0.0442,0,0.0384,0.0384,0.0383,0.0361,0.0361,0.0361,0.0361,0.0303,0.0301,0.03,0,0,0,0,0,0,0,0,0,0,0,0,0,0.0536,0.0534,0.0442,0.0442,0.0441,0.0384,0.0384,0.0383,0.0361,0.0361,0.0361,0.0361,0.0304,0.0302,0.0299,0,0,0,0,0,0,0,0,0,0,0,0,0,0.0488,0.0534,0.0443,0.0423,0.0421,0.0385,0.0384,0.0383,0.0361,0.0361,0.0361,0.0362,0.0304,0.0302,0.0299,0.0278,0,0,0.0291,0.029,0,0,0,0,0,0,0,0,0.0491,0.0485,0.0427,0.0424,0.0422,0.038,0.0395,0.0348,0.0361,0.0384,0.0361,0.0362,0.0328,0.0324,0.0313,0.0276,0.0273,0.0291,0.029,0.0288,0.0288,0,0,0,0,0,0,0,0.0494,0.0487,0.0419,0.0426,0.0423,0.0418,0.0411,0.0386,0.0355,0.0382,0.038,0.0373,0.0327,0.0315,0.0311,0.0272,0.0291,0.0289,0.0287,0.0286,0.0216,0.0216,0,0,0,0,0,0,0.0501,0.049,0.0421,0.0418,0.0458,0.0416,0.0409,0.0393,0.0356,0.035,0.0373,0.0372,0.0319,0.0314,0.0309,0.0282,0.0288,0.0286,0.0285,0.0216,0.0216,0.0216,0,0,0,0,0,0,0.0503,0.0495,0.0424,0.0453,0.0444,0.0414,0.0397,0.0392,0.038,0.0349,0.0344,0.0366,0.0319,0.0312,0.0286,0.028,0.0285,0.0283,0.0217,0.0216,0.0216,0.0229,0,0,0,0,0,0,0.0506,0.0496,0.0487,0.0453,0.0443,0.0401,0.0396,0.0391,0.0375,0.0374,0.0341,0.0336,0.0319,0.029,0.0284,0.0276,0.0281,0.0217,0.0217,0.0216,0.0229,0.0229,0.0229,0,0,0,0,0,0.0509,0.0493,0.0487,0.0478,0.0431,0.0401,0.0395,0.0375,0.0375,0.0366,0.0347,0.0337,0.0282,0.0288,0.028,0.0272,0.0218,0.0217,0.0216,0.0229,0.0229,0.0229,0,0,0,0,0,0,0.0527,0.0488,0.0481,0.0453,0.0431,0.0397,0.0386,0.0376,0.0353,0.0353,0.033,0.0322,0.0298,0.0283,0.029,0.025,0.0249,0.0247,0.0261,0.0261,0.0261,0.0265,0.0278,0,0,0,0,0,0.0527,0.0506,0.0474,0.0452,0.0441,0.0416,0.0402,0.0389,0.0364,0.0355,0.0333,0.0311,0.0288,0.0274,0.0251,0.0227,0.022,0.0218,0.0218,0.0218,0.0216,0.0202,0.0201,0.0213,0.0213,0.0213,0,0,0.0528,0.0505,0.0493,0.0455,0.0436,0.0415,0.0408,0.0385,0.037,0.0352,0.0325,0.0309,0.0282,0.0257,0.0244,0.0243,0.0211,0.0217,0.0217,0.0215,0.0202,0.02,0.0199,0.0213,0.0213,0.0213,0,0,0.0519,0.0499,0.048,0.0461,0.0432,0.0415,0.0411,0.0379,0.0367,0.0341,0.0327,0.0308,0.027,0.0252,0.0237,0.0223,0.0213,0.0216,0.0216,0.0203,0.0202,0.0201,0.0196,0.0195,0.0215,0.0215,0.0215,0,0.0524,0.0491,0.0471,0.0449,0.0434,0.0417,0.0397,0.038,0.0345,0.0335,0.0334,0.0286,0.0267,0.0237,0.0234,0.0223,0.0217,0.0219,0.0204,0.0203,0.0202,0.0197,0.0195,0.0215,0.0215,0.0215,0.0215,0,0.0499,0.0477,0.0464,0.0431,0.0414,0.0394,0.0371,0.0357,0.0345,0.0329,0.0303,0.0279,0.0252,0.0244,0.0233,0.0213,0.0213,0.0208,0.0206,0.0201,0.0196,0.0194,0.0216,0.0216,0.0216,0.0215,0,0,0.0499,0.0455,0.0451,0.0436,0.0404,0.0386,0.0366,0.0339,0.0327,0.0304,0.0287,0.0255,0.0251,0.0235,0.0222,0.021,0.0201,0.0207,0.0206,0.0207,0.0178,0.0182,0.018,0.0195,0.0194,0.0194,0.0181,0,0.0486,0.0447,0.0428,0.0398,0.0378,0.0362,0.0344,0.0323,0.0307,0.0288,0.0271,0.0249,0.0245,0.0235,0.0223,0.0205,0.0195,0.0205,0.0179,0.0178,0.0185,0.0177,0.0181,0.0169,0.0178,0.0178,0.0178,0,0.0465,0.0442,0.041,0.038,0.0371,0.0355,0.0329,0.0311,0.0287,0.0276,0.0259,0.0246,0.0225,0.0225,0.0196,0.0203,0.0192,0.0181,0.018,0.0177,0.0177,0.0174,0.0165,0.0163,0.0175,0.0175,0.0175,0,0.0468,0.0429,0.0405,0.0393,0.0358,0.0347,0.0332,0.0308,0.0294,0.0272,0.0262,0.0238,0.0225,0.0207,0.0189,0.0191,0.0161,0.016,0.0153,0.0153,0.0147,0.0147,0.0136,0.014,0.014,0.014,0.014,0,0.0455,0.0436,0.0406,0.0391,0.0369,0.0349,0.0328,0.0312,0.0292,0.0274,0.0259,0.0243,0.022,0.0201,0.0187,0.0165,0.0159,0.0151,0.0147,0.0152,0.0153,0.0143,0.0144,0.0139,0.0139,0.0139,0.0139,0,0.0454,0.0433,0.0406,0.0375,0.0367,0.0353,0.0327,0.0312,0.0297,0.0274,0.0268,0.0243,0.0221,0.0201,0.0171,0.0161,0.0139,0.0135,0.0147,0.0145,0.0139,0.0139,0.012,0.0117,0.0123,0.0123,0.0123,0,0.0447,0.0432,0.04,0.0387,0.0372,0.0351,0.0336,0.0316,0.0301,0.0273,0.0262,0.0238,0.0218,0.0183,0.0163,0.014,0.0135,0.013,0.0131,0.0137,0.0135,0.0136,0.0135,0.013,0.013,0.013,0.013,0,0.0436,0.0427,0.0406,0.0381,0.0364,0.0343,0.0323,0.0313,0.0289,0.0274,0.025,0.0235,0.0204,0.0181,0.0156,0.0142,0.0132,0.013,0.0127,0.0131,0.0139,0.0135,0.0147,0.013,0.013,0.013,0.013,0.013,0.0432,0.0418,0.0394,0.0371,0.0353,0.0334,0.0319,0.0302,0.0282,0.0255,0.0245,0.0221,0.0198,0.0164,0.015,0.0131,0.013,0.0125,0.0124,0.0123,0.0124,0.0142,0.0127,0.0127,0.0127,0.0127,0.0127,0,0.0421,0.0404,0.0384,0.0355,0.0337,0.033,0.0307,0.0293,0.0272,0.0251,0.0232,0.0205,0.0183,0.0162,0.0139,0.0128,0.0123,0.0123,0.0123,0.012,0.0127,0.0132,0.0127,0.0127,0.0127,0.0127,0.0127,0.0127,0.0413,0.0389,0.0377,0.0345,0.0329,0.0305,0.0293,0.0276,0.0259,0.023,0.0211,0.0197,0.0177,0.0152,0.0132,0.0126,0.0119,0.0119,0.0113,0.0119,0.012,0.012,0.0124,0.0118,0.0118,0.0107,0.0107,0.0107]},{"header":{"parameterUnit":"m.s-1","parameterCategory":1,"la1":30.2991,"la2":30.254,"lo1":-89.0895,"lo2":-89.0444,"dy":0.0017,"dx":0.0017,"nx":28,"ny":28,"refTime":"2025-04-11T03:00:00:Z","depth":0,"parameterNumber":3,"parameterNumberName":"V-component_of_WINDS"},"data":[0,0,0,0,0,0,0,0,0,0,0,0,0,0,0,0,0,0,0,0,0,0,0,0,0,0,0,0,0,0,0,0,0,0,0,0,0,0,0,0,0,0,0,0,0,0,0,0,0,0,0,0,0,0,0,0,0,0,-3.891,-3.8911,0,-3.9032,-3.9033,-3.9034,-3.8986,-3.8983,-3.8981,-3.8978,-3.9099,-3.9105,-3.911,0,0,0,0,0,0,0,0,0,0,0,0,0,-3.8631,-3.8637,-3.891,-3.8911,-3.8913,-3.9032,-3.9033,-3.9035,-3.8987,-3.8983,-3.898,-3.8977,-3.9097,-3.9104,-3.9111,0,0,0,0,0,0,0,0,0,0,0,0,0,-3.8753,-3.8638,-3.8909,-3.8903,-3.8904,-3.9031,-3.9033,-3.9035,-3.8987,-3.8983,-3.8979,-3.8975,-3.9095,-3.9103,-3.9112,-3.9252,0,0,-3.9139,-3.9143,0,0,0,0,0,0,0,0,-3.8746,-3.8763,-3.8902,-3.8904,-3.8905,-3.8989,-3.8979,-3.9108,-3.8989,-3.8956,-3.8978,-3.8973,-3.9066,-3.9077,-3.9109,-3.9257,-3.9263,-3.914,-3.9145,-3.9149,-3.9151,0,0,0,0,0,0,0,-3.8737,-3.8757,-3.8958,-3.8905,-3.8906,-3.8893,-3.8905,-3.9003,-3.9033,-3.8958,-3.8955,-3.897,-3.9065,-3.91,-3.9111,-3.9264,-3.9139,-3.9147,-3.9153,-3.9156,-3.9533,-3.9538,0,0,0,0,0,0,-3.8729,-3.8751,-3.8954,-3.8961,-3.8813,-3.8901,-3.8915,-3.8966,-3.9032,-3.9038,-3.8974,-3.8967,-3.9087,-3.9101,-3.9115,-3.9283,-3.9149,-3.9157,-3.9162,-3.9528,-3.9534,-3.9539,0,0,0,0,0,0,-3.8723,-3.8748,-3.8949,-3.8855,-3.888,-3.8911,-3.8968,-3.8971,-3.9006,-3.9044,-3.9048,-3.9004,-3.9085,-3.9103,-3.9218,-3.9287,-3.9161,-3.9169,-3.9523,-3.953,-3.9537,-3.962,0,0,0,0,0,0,-3.8716,-3.8746,-3.88,-3.8857,-3.8885,-3.9051,-3.8973,-3.8977,-3.9022,-3.9015,-3.9074,-3.9079,-3.9083,-3.9205,-3.9227,-3.9296,-3.9176,-3.9517,-3.9526,-3.9534,-3.9611,-3.9629,-3.9644,0,0,0,0,0,-3.8706,-3.8818,-3.8803,-3.8828,-3.8954,-3.9055,-3.9071,-3.9074,-3.9028,-3.9082,-3.9106,-3.9077,-3.9276,-3.9218,-3.9242,-3.9315,-3.9512,-3.9523,-3.9534,-3.9604,-3.9625,-3.9644,0,0,0,0,0,0,-3.8767,-3.8825,-3.881,-3.8944,-3.8995,-3.9047,-3.9116,-3.9097,-3.9162,-3.9153,-3.9152,-3.9166,-3.9285,-3.9311,-3.9246,-3.9453,-3.9387,-3.9403,-3.9432,-3.9453,-3.9469,-3.946,-3.9183,0,0,0,0,0,-3.8797,-3.8876,-3.8921,-3.9035,-3.9062,-3.9085,-3.9129,-3.9127,-3.918,-3.9201,-3.9233,-3.9285,-3.9358,-3.9407,-3.9477,-3.9615,-3.9626,-3.9677,-3.9693,-3.9706,-3.972,-3.9794,-3.9817,-3.9574,-3.9574,-3.9574,0,0,-3.8858,-3.8899,-3.8949,-3.9049,-3.9088,-3.9169,-3.9103,-3.9191,-3.9251,-3.9214,-3.9325,-3.9351,-3.9408,-3.9535,-3.9593,-3.956,-3.979,-3.972,-3.973,-3.9737,-3.9808,-3.9831,-3.9851,-3.9581,-3.958,-3.9579,0,0,-3.901,-3.905,-3.9149,-3.9191,-3.9252,-3.9266,-3.929,-3.9345,-3.9361,-3.9473,-3.9447,-3.9517,-3.9644,-3.9686,-3.9724,-3.9893,-3.9869,-3.9915,-4.0001,-4.0074,-4.0093,-4.011,-4.017,-4.0192,-3.9929,-3.9929,-3.9929,0,-3.9078,-3.92,-3.9202,-3.9293,-3.9337,-3.9309,-3.9409,-3.9448,-3.9529,-3.956,-3.9523,-3.9682,-3.9718,-3.9855,-3.9896,-3.9928,-3.9954,-3.9909,-4.0091,-4.0108,-4.0123,-4.018,-4.0203,-3.9934,-3.9934,-3.9933,-3.9933,0,-3.928,-3.9365,-3.9438,-3.9518,-3.957,-3.9665,-3.9681,-3.9733,-3.9727,-3.9744,-3.9858,-3.9901,-3.9979,-4.0011,-4.0005,-4.0147,-4.0125,-4.009,-4.0023,-4.0152,-4.0205,-4.0227,-3.9942,-3.994,-3.9939,-3.9937,0,0,-3.9475,-3.9556,-3.9582,-3.9618,-3.9684,-3.9749,-3.9842,-3.992,-3.9965,-4.0021,-4.0098,-4.0207,-4.0174,-4.0217,-4.0216,-4.0279,-4.041,-4.0236,-4.0237,-4.0266,-4.0569,-4.0595,-4.062,-4.0394,-4.0399,-4.0402,-4.0564,0,-3.9632,-3.9798,-3.9802,-3.9953,-4.0031,-4.0005,-4.0085,-4.0134,-4.0153,-4.0221,-4.0241,-4.0318,-4.027,-4.0295,-4.0357,-4.0381,-4.0471,-4.0369,-4.0465,-4.0469,-4.0452,-4.0648,-4.0677,-4.0827,-4.0585,-4.0588,-4.0591,0,-3.9839,-3.9903,-4.0062,-4.0116,-4.0149,-4.0222,-4.0294,-4.0359,-4.0413,-4.0422,-4.0471,-4.046,-4.0553,-4.0484,-4.0613,-4.0544,-4.0583,-4.0601,-4.0607,-4.0616,-4.0538,-4.0662,-4.0876,-4.0898,-4.0624,-4.0621,-4.0619,0,-3.9965,-4.0091,-4.0202,-4.0234,-4.03,-4.0352,-4.0382,-4.0432,-4.0478,-4.054,-4.057,-4.0642,-4.0681,-4.0736,-4.0744,-4.0693,-4.0873,-4.0805,-4.0883,-4.0883,-4.0922,-4.0919,-4.1144,-4.0948,-4.0947,-4.0947,-4.0946,0,-4.014,-4.0238,-4.026,-4.0328,-4.0437,-4.0441,-4.0548,-4.0573,-4.0618,-4.069,-4.0671,-4.0739,-4.0746,-4.0815,-4.0821,-4.0927,-4.0944,-4.0954,-4.0954,-4.0956,-4.0955,-4.0981,-4.0971,-4.0953,-4.0952,-4.095,-4.0949,0,-4.0299,-4.0318,-4.0438,-4.0491,-4.0507,-4.0584,-4.0629,-4.0694,-4.0711,-4.0803,-4.0824,-4.0851,-4.0932,-4.0945,-4.104,-4.1044,-4.117,-4.116,-4.1153,-4.1151,-4.1229,-4.1221,-4.1479,-4.1512,-4.1294,-4.1296,-4.1298,0,-4.041,-4.0485,-4.0547,-4.0595,-4.0628,-4.0705,-4.0752,-4.0759,-4.0809,-4.0876,-4.0932,-4.1011,-4.1075,-4.1205,-4.1232,-4.1304,-4.1295,-4.138,-4.1306,-4.1305,-4.1296,-4.1292,-4.1299,-4.1395,-4.1397,-4.1399,-4.14,0,-4.0605,-4.0611,-4.0681,-4.0755,-4.0812,-4.087,-4.0925,-4.0965,-4.0978,-4.1035,-4.1118,-4.1168,-4.1265,-4.1343,-4.1415,-4.1444,-4.1425,-4.1424,-4.1446,-4.1448,-4.144,-4.1445,-4.1192,-4.1418,-4.1416,-4.1415,-4.1414,-4.1413,-4.0743,-4.0809,-4.0863,-4.0942,-4.0984,-4.1036,-4.1099,-4.1125,-4.1195,-4.1275,-4.1274,-4.1365,-4.1417,-4.1511,-4.1545,-4.1615,-4.1588,-4.1619,-4.1627,-4.1635,-4.1643,-4.1429,-4.1628,-4.1628,-4.1627,-4.1627,-4.1626,0,-4.0937,-4.0971,-4.1043,-4.1121,-4.1183,-4.1161,-4.122,-4.1273,-4.1354,-4.1404,-4.1467,-4.1562,-4.1638,-4.1671,-4.1746,-4.1796,-4.1789,-4.1815,-4.1811,-4.1818,-4.1663,-4.1637,-4.1819,-4.1819,-4.1819,-4.1819,-4.1819,-4.1819,-4.1045,-4.1155,-4.1167,-4.1297,-4.1329,-4.1419,-4.1455,-4.1502,-4.1543,-4.165,-4.1714,-4.1735,-4.1779,-4.1856,-4.1924,-4.1932,-4.196,-4.199,-4.1994,-4.1849,-4.1829,-4.181,-4.1786,-4.1997,-4.1997,-4.2143,-4.2144,-4.2145]}]]